This is the latest recevied weather packets stored in our database for station/object K7DC. If no packets are shown the sender has not sent any weather packets the latest 10 day(s).
| Time | Temp. | Humidity | Pressure | Rain* | Wind** | Luminosity | Snow |
|---|---|---|---|---|---|---|---|
| 1777654004 | 23.89° C | 34% | 1014.4 hPa | 0 mm | - | 722 W/m² | - |
| 1777653700 | 24.44° C | 35% | 1014.3 hPa | 0 mm | - | 710 W/m² | - |
| 1777653396 | 25° C | 33% | 1014.3 hPa | 0 mm | - | 696 W/m² | - |
| 1777653093 | 26.11° C | 32% | 1014.2 hPa | 0 mm | - | 683 W/m² | - |
| 1777652789 | 25° C | 34% | 1014.2 hPa | 0 mm | - | 666 W/m² | - |
| 1777652486 | 23.89° C | 36% | 1014.3 hPa | 0 mm | - | 651 W/m² | - |
| 1777652184 | 23.33° C | 37% | 1014 hPa | 0 mm | - | 635 W/m² | - |
| 1777651881 | 23.89° C | 37% | 1014.1 hPa | 0 mm | - | 620 W/m² | - |
| 1777651577 | 23.33° C | 40% | 1014.2 hPa | 0 mm | - | 603 W/m² | - |
| 1777651275 | 22.22° C | 43% | 1014.2 hPa | 0 mm | - | 586 W/m² | - |
| 1777650971 | 22.78° C | 42% | 1014 hPa | 0 mm | - | 568 W/m² | - |
| 1777650668 | 22.22° C | 43% | 1014.1 hPa | 0 mm | - | 552 W/m² | - |
| 1777650365 | 22.22° C | 44% | 1014 hPa | 0 mm | - | 534 W/m² | - |
| 1777650062 | 21.67° C | 44% | 1014 hPa | 0 mm | - | 517 W/m² | - |
| 1777649759 | 21.11° C | 45% | 1013.9 hPa | 0 mm | - | 495 W/m² | - |
| 1777649456 | 21.11° C | 46% | 1014 hPa | 0 mm | - | 480 W/m² | - |
| 1777649153 | 21.11° C | 46% | 1013.9 hPa | 0 mm | - | 459 W/m² | - |
| 1777648850 | 20.56° C | 48% | 1013.8 hPa | 0 mm | - | 231 W/m² | - |
| 1777648546 | 20.56° C | 48% | 1013.7 hPa | 0 mm | - | 416 W/m² | - |
| 1777648243 | 20° C | 50% | 1013.7 hPa | 0 mm | - | 281 W/m² | - |
| 1777647938 | 20° C | 52% | 1013.4 hPa | 0 mm | - | 401 W/m² | - |
| 1777647636 | 20° C | 51% | 1013.5 hPa | 0 mm | - | 351 W/m² | - |
| 1777647331 | 18.89° C | 54% | 1013.4 hPa | 0 mm | - | 330 W/m² | - |
| 1777647030 | 18.89° C | 56% | 1013.7 hPa | 0 mm | - | 324 W/m² | - |
| 1777646725 | 18.89° C | 55% | 1013.5 hPa | 0 mm | - | 289 W/m² | - |
* Rain latest hour (hover to see other rain measurements)
** Current wind speed in m/s (hover to see current wind gust speed)